Вернуться в каталог

SCOUT B DEB

LostUNKNOWN
NORAD 29175·DEBRIS·🇺🇸 United States

Запущен Aug 10, 1965 с Wallops Flight Facility

Loading…

Ближайшие Пролёты (ближайшие 24 часа)

TLE

УстаревшееSource: Space-Track

Эпоха: Dec 14, 2013, 05:59 UTC

1 29175U 65063Z   13348.24940053 -.00000020  00000-0  86497-4 0  9991
2 29175  69.1924 298.3547 0743692 348.3336  71.7544 11.93232746385525

Отслеживайте SCOUT B DEB в реальном времени с AllMySat

Download on the App Store